Tracking 27107 objects as of 21-Mar-2023
HD Live streaming from Space Station
objects crossing your sky now

SL-8 DEB

Track SL-8 DEB now!
10-day predictions


NORAD ID: 21174
Int'l Code: 1991-009AM
Perigee: 1,469.3 km
Apogee: 1,913.0 km
Inclination: 74.1 °
Period: 120.1 minutes
Semi major axis: 8062 km
RCS: 0.0735 m2 (small)
Launch date: February 12, 1991
Source: Commonwealth of Independent States (former USSR) (CIS)
Launch site: PLESETSK MISSILE AND SPACE COMPLEX (PKMTR)

Note: This is SATELLITE DEBRIS
Your satellite tracking list
Your tracking list is empty




NASA's NSSDC Master Catalog

Two Line Element Set (TLE):
1 21174U 91009AM  23079.86945878  .00000090  00000-0  11503-2 0  9991
2 21174  74.0863 122.2659 0275148  44.2764 128.0679 11.99292073402503
Source of the keplerian elements: AFSPC